EW3334 Weather Reports


Display with metric or nautical units.
time (UTC)temp
F
wind
direction
speed
MPH
gust
MPH
rain 1hr
in
rain 24hr
in
rain mn
in
humidity
%
barometer
mb
20260504214547 71 204 5.0 12.0 0.00 0.00 0.00 30 1005.2
20260504214044 71 236 5.0 15.0 0.00 0.00 0.00 30 1005.2
20260504213544 71 215 5.0 16.0 0.00 0.00 0.00 29 1005.1
20260504213044 72 299 4.0 16.0 0.00 0.00 0.00 29 1005.1
20260504212544 72 234 6.0 16.0 0.00 0.00 0.00 29 1005.3
20260504212044 72 218 4.0 19.0 0.00 0.00 0.00 29 1005.3
20260504211543 73 302 5.0 19.0 0.00 0.00 0.00 29 1005.2
20260504211042 73 205 4.0 16.0 0.00 0.00 0.00 30 1005.2
20260504210543 72 156 4.0 15.0 0.00 0.00 0.00 29 1005.1
20260504210053 72 14 4.0 19.0 0.00 0.00 0.00 30 1005.2
20260504205539 72 172 7.0 19.0 0.00 0.00 0.00 30 1005.2
20260504205038 72 182 5.0 16.0 0.00 0.00 0.00 30 1005.1
20260504204546 71 250 3.0 18.0 0.00 0.00 0.00 31 1005.1
20260504204038 71 259 3.0 18.0 0.00 0.00 0.00 30 1005.2
20260504203538 71 119 4.0 15.0 0.00 0.00 0.00 30 1005.2
20260504203039 71 273 5.0 15.0 0.00 0.00 0.00 31 1005.2
20260504202537 71 317 2.0 12.0 0.00 0.00 0.00 32 1005.4
20260504202034 70 115 2.0 12.0 0.00 0.00 0.00 32 1005.4
20260504201536 71 175 2.0 10.0 0.00 0.00 0.00 31 1005.3
20260504201033 71 179 5.0 10.0 0.00 0.00 0.00 31 1005.3
20260504200535 71 281 3.0 14.0 0.00 0.00 0.00 32 1005.4
20260504200043 71 180 5.0 14.0 0.00 0.00 0.00 31 1005.4
20260504195531 71 167 5.0 11.0 0.00 0.00 0.00 30 1005.2
20260504195032 71 139 3.0 12.0 0.00 0.00 0.00 31 1005.3
20260504194531 71 157 5.0 22.0 0.00 0.00 0.00 30 1005.3
20260504194030 70 229 9.0 22.0 0.00 0.00 0.00 31 1005.3
20260504193530 70 310 4.0 18.0 0.00 0.00 0.00 32 1005.3
20260504193029 70 269 4.0 18.0 0.00 0.00 0.00 32 1005.5
20260504192529 70 221 1.0 13.0 0.00 0.00 0.00 30 1005.2
20260504192030 70 261 5.0 13.0 0.00 0.00 0.00 30 1005.4
20260504191528 71 236 3.0 15.0 0.00 0.00 0.00 30 1005.4
20260504191027 71 355 5.0 15.0 0.00 0.00 0.00 31 1005.5
20260504190527 71 148 5.0 17.0 0.00 0.00 0.00 31 1005.5
20260504190025 71 227 4.0 17.0 0.00 0.00 0.00 30 1005.6
20260504185523 71 262 5.0 15.0 0.00 0.00 0.00 32 1005.5
20260504185023 70 239 3.0 15.0 0.00 0.00 0.00 31 1005.6
20260504184532 71 190 4.0 14.0 0.00 0.00 0.00 30 1005.9
20260504184021 71 195 2.0 11.0 0.00 0.00 0.00 32 1005.7
20260504183520 70 168 2.0 11.0 0.00 0.00 0.00 30 1005.6
20260504183025 70 158 3.0 9.0 0.00 0.00 0.00 31 1005.7
20260504182518 69 178 4.0 9.0 0.00 0.00 0.00 30 1005.7
20260504182021 69 165 3.0 16.0 0.00 0.00 0.00 30 1005.9
20260504181517 69 278 5.0 13.0 0.00 0.00 0.00 31 1005.6
20260504181016 69 232 5.0 19.0 0.00 0.00 0.00 32 1005.8
20260504180516 68 189 5.0 14.0 0.00 0.00 0.00 31 1005.7
20260504180015 68 173 6.0 16.0 0.00 0.00 0.00 31 1006.0
20260504175514 68 182 6.0 16.0 0.00 0.00 0.00 31 1005.9
20260504175013 68 160 2.0 15.0 0.00 0.00 0.00 32 1005.9
20260504174513 68 162 7.0 15.0 0.00 0.00 0.00 30 1005.9
20260504174012 69 240 3.0 15.0 0.00 0.00 0.00 30 1006.0
20260504173514 70 232 6.0 18.0 0.00 0.00 0.00 29 1005.9
20260504173011 70 169 3.0 17.0 0.00 0.00 0.00 32 1005.9
20260504172512 70 154 5.0 17.0 0.00 0.00 0.00 31 1005.9
20260504172011 70 294 2.0 11.0 0.00 0.00 0.00 31 1006.1
20260504171507 69 172 4.0 16.0 0.00 0.00 0.00 32 1006.1
20260504171008 69 265 4.0 16.0 0.00 0.00 0.00 32 1006.2
20260504170505 69 166 6.0 16.0 0.00 0.00 0.00 32 1006.1
20260504151044 65 171 4.0 12.0 0.00 0.00 0.00 38 1007.2
20260504150543 65 235 4.0 12.0 0.00 0.00 0.00 37 1007.2
20260504141031 60 230 2.0 15.0 0.00 0.00 0.00 43 1008.2
20260504140526 60 227 5.0 15.0 0.00 0.00 0.00 44 1008.4
20260504130514 56 201 3.0 13.0 0.00 0.00 0.00 53 1008.7
20260504120124 47 171 2.0 3.0 0.00 0.00 0.00 68 1009.2
20260504110538 39 241 0.0 1.0 0.00 0.00 0.00 81 1009.5
20260504100532 37 241 0.0 1.0 0.00 0.00 0.00 86 1009.4
20260504081527 37 238 0.0 1.0 0.00 0.00 0.00 87 1009.3
20260504081022 37 238 0.0 1.0 0.00 0.00 0.00 87 1009.3
20260504080526 37 238 0.0 1.0 0.00 0.00 0.00 87 1009.3
20260504050503 32 238 0.0 0.0 0.00 0.00 0.00 84 1009.3
20260504050002 32 238 0.0 0.0 0.00 0.00 0.00 84 1009.4
20260504045500 32 238 0.0 0.0 0.00 0.00 0.00 83 1009.4
20260504045003 33 238 0.0 1.0 0.00 0.00 0.00 83 1009.4
20260504044600 33 238 0.0 1.0 0.00 0.00 0.00 83 1009.3
20260504044100 33 238 0.0 0.0 0.00 0.00 0.00 82 1009.3
20260504043559 33 238 0.0 1.0 0.00 0.00 0.00 82 1009.3
20260504043114 33 238 0.0 1.0 0.00 0.00 0.00 81 1009.4
20260504042558 33 238 0.0 1.0 0.00 0.00 0.00 81 1009.4
20260504042059 33 238 0.0 1.0 0.00 0.00 0.00 80 1009.3
20260504041555 34 234 0.0 0.0 0.00 0.00 0.00 80 1009.3
20260504041056 34 238 0.0 0.0 0.00 0.00 0.00 80 1009.3
20260504040555 34 238 0.0 0.0 0.00 0.00 0.00 79 1009.2
20260504040052 34 238 0.0 0.0 0.00 0.00 0.00 78 1009.1
20260504035553 34 238 0.0 0.0 0.00 0.01 0.00 78 1009.2
20260504035050 34 238 0.0 0.0 0.00 0.01 0.00 78 1009.1
20260504034553 35 238 0.0 0.0 0.00 0.01 0.00 78 1009.1
20260504034051 35 238 0.0 0.0 0.00 0.01 0.00 78 1009.0
20260504033548 35 238 0.0 1.0 0.00 0.01 0.00 78 1009.1
20260504033050 35 238 0.0 1.0 0.00 0.01 0.00 77 1009.1
20260504032547 35 238 0.0 0.0 0.00 0.01 0.00 76 1009.0
20260504032047 35 238 0.0 1.0 0.00 0.01 0.00 76 1009.0
20260504031552 36 238 0.0 1.0 0.00 0.01 0.00 75 1008.9
20260504031047 36 238 0.0 0.0 0.00 0.01 0.00 75 1009.0
20260504030544 36 238 0.0 0.0 0.00 0.01 0.00 74 1009.0
20260504030101 36 238 0.0 0.0 0.00 0.01 0.00 74 1009.0
20260504025543 36 238 0.0 1.0 0.00 0.01 0.00 74 1009.0
20260504025044 37 238 0.0 1.0 0.00 0.01 0.00 73 1009.0
20260504024542 37 238 0.0 1.0 0.00 0.01 0.00 72 1009.0
20260504024041 37 238 0.0 0.0 0.00 0.01 0.00 71 1008.9
20260504023541 37 238 0.0 0.0 0.00 0.01 0.00 71 1008.9
20260504023041 37 238 0.0 0.0 0.00 0.01 0.00 70 1008.9
20260504022542 37 238 0.0 0.0 0.00 0.01 0.00 70 1008.9
20260504022040 38 238 0.0 0.0 0.00 0.01 0.00 70 1009.0
20260504021545 38 238 0.0 1.0 0.00 0.01 0.00 69 1008.9
20260504021037 38 238 0.0 2.0 0.00 0.01 0.00 69 1009.0
20260504020540 38 238 0.0 2.0 0.00 0.01 0.00 68 1008.9
20260504020038 38 238 0.0 2.0 0.00 0.01 0.00 68 1008.8
20260504015536 39 238 0.0 2.0 0.00 0.01 0.00 68 1008.7
20260504015036 39 238 0.0 2.0 0.00 0.01 0.00 67 1008.7
20260504014536 39 238 0.0 1.0 0.00 0.01 0.00 66 1008.7
20260504014035 39 238 0.0 1.0 0.00 0.01 0.00 66 1008.7
20260504013536 40 238 0.0 1.0 0.00 0.01 0.00 65 1008.6
20260504013037 40 238 0.0 0.0 0.00 0.01 0.00 65 1008.6
20260504012535 40 238 0.0 1.0 0.00 0.01 0.00 64 1008.6
20260504012035 41 238 0.0 1.0 0.00 0.01 0.00 63 1008.6
20260504011535 41 238 0.0 1.0 0.00 0.01 0.00 63 1008.5
20260504011037 41 238 0.0 1.0 0.00 0.01 0.00 62 1008.4
20260504010534 41 238 0.0 1.0 0.00 0.01 0.00 62 1008.4
20260504010034 42 238 0.0 1.0 0.00 0.01 0.00 61 1008.4
20260504005534 42 238 0.0 1.0 0.00 0.01 0.00 60 1008.3
20260504005034 42 238 0.0 1.0 0.00 0.01 0.00 60 1008.3
20260504004542 43 238 0.0 1.0 0.00 0.01 0.00 59 1008.2
20260504004035 43 238 0.0 1.0 0.00 0.01 0.00 58 1008.1
20260504003533 44 238 0.0 1.0 0.00 0.01 0.00 56 1008.0
20260504003033 44 238 0.0 1.0 0.00 0.01 0.00 55 1008.0
20260504002533 45 238 0.0 1.0 0.00 0.01 0.00 54 1008.0
20260504002034 45 238 0.0 1.0 0.00 0.01 0.00 53 1008.0
20260504001538 46 238 0.0 0.0 0.00 0.01 0.00 52 1007.9
20260504001033 46 238 0.0 0.0 0.00 0.01 0.00 51 1007.9
20260504000533 47 238 0.0 0.0 0.00 0.01 0.00 51 1007.7
20260504000033 47 238 0.0 3.0 0.00 0.01 0.00 51 1007.7
20260503235532 47 238 1.0 4.0 0.00 0.03 0.00 49 1007.6
20260503235033 47 173 0.0 4.0 0.00 0.03 0.00 48 1007.6
20260503234535 48 246 0.0 9.0 0.00 0.03 0.00 47 1007.6
20260503234032 48 238 2.0 9.0 0.00 0.03 0.00 46 1007.5
20260503233531 48 198 2.0 9.0 0.00 0.03 0.00 46 1007.5
20260503233032 48 215 4.0 9.0 0.00 0.03 0.00 45 1007.4
20260503232537 48 207 3.0 11.0 0.00 0.03 0.00 45 1007.3
20260503232031 49 289 6.0 11.0 0.00 0.03 0.00 45 1007.3
20260503231531 49 311 3.0 11.0 0.00 0.03 0.00 45 1007.2
20260503231033 49 287 6.0 11.0 0.00 0.03 0.00 44 1007.2
20260503230531 49 254 4.0 13.0 0.00 0.03 0.00 44 1007.1
20260503230050 49 312 4.0 13.0 0.00 0.03 0.00 44 1007.0
20260503225533 49 262 5.0 12.0 0.00 0.06 0.00 43 1007.0
20260503225031 49 309 6.0 12.0 0.00 0.06 0.00 43 1007.0
20260503224531 50 298 6.0 18.0 0.00 0.06 0.00 44 1006.9
20260503224031 49 260 5.0 18.0 0.00 0.06 0.00 43 1006.9
20260503223533 49 267 6.0 17.0 0.00 0.06 0.00 43 1006.8
20260503223030 50 355 4.0 12.0 0.00 0.06 0.00 42 1006.8
20260503222529 50 302 6.0 12.0 0.00 0.06 0.00 41 1006.8
20260503222029 50 284 5.0 14.0 0.00 0.06 0.00 40 1006.6
20260503221535 50 225 7.0 16.0 0.00 0.06 0.00 40 1006.6
20260503221033 51 253 6.0 17.0 0.00 0.06 0.00 41 1006.5
20260503220529 50 267 6.0 15.0 0.00 0.06 0.00 41 1006.4
20260503220035 50 330 3.0 11.0 0.00 0.06 0.00 41 1006.4
20260503215529 50 216 4.0 15.0 0.00 0.06 0.00 40 1006.4
20260503215028 50 284 7.0 15.0 0.00 0.06 0.00 40 1006.4